[[{"header":{"parameterUnit":"m.s-1","parameterCategory":1,"la1":30.2992,"la2":30.254,"lo1":-89.0895,"lo2":-89.0443,"dy":0.0025,"dx":0.0025,"nx":19,"ny":19,"refTime":"2026-05-08T09:00:00:Z","depth":0,"parameterNumber":2,"parameterNumberName":"U-component_of_WINDS"},"data":[0,0,0,1.6795,1.6795,1.6774,1.6774,1.6766,1.6766,0,0,0,0,0,0,0,0,0,0,0,1.6812,1.6812,1.6795,1.6795,1.6774,1.6774,1.6766,1.6766,0,0,0,0,0,0,0,0,0,0,0,1.6812,1.6812,1.6812,1.6795,1.6774,1.6774,1.6766,1.6775,0,0,0,0,0,0,0,0,0,0,1.6792,1.6817,1.6812,1.6812,1.6795,1.6774,1.6774,1.6776,1.6775,1.6783,0,1.6793,0,1.678,1.6767,1.6767,0,0,0,1.6788,1.6818,1.6803,1.6812,1.6795,1.6775,1.6782,1.6775,1.6774,1.6783,1.6793,1.6792,1.678,1.6767,1.6767,1.6839,1.684,0,0,1.6789,1.6813,1.6804,1.6803,1.6807,1.6782,1.6781,1.6774,1.6787,1.6792,1.6791,1.6779,1.6767,1.6767,1.6838,1.6839,0,0,0,1.6797,1.6815,1.68,1.6804,1.6799,1.6782,1.678,1.6787,1.678,1.6791,1.6779,1.6767,1.6767,1.6838,1.6839,1.6895,0,0,0,1.6797,1.6819,1.68,1.6816,1.6799,1.6793,1.6794,1.6781,1.6779,1.6779,1.6767,1.6767,1.6837,1.6838,1.6892,1.6917,0,0,0,1.681,1.6821,1.6821,1.6817,1.6809,1.6792,1.6784,1.678,1.6772,1.6767,1.6767,1.6836,1.6838,1.6889,1.6912,1.6942,0,0,0,1.683,1.6872,1.6823,1.6866,1.6809,1.6828,1.6784,1.6797,1.6799,1.6767,1.6837,1.6839,1.6888,1.6909,1.6939,1.6969,1.6985,0,0,1.6897,1.6881,1.6905,1.686,1.6893,1.6829,1.6871,1.685,1.6828,1.6837,1.6838,1.6893,1.6912,1.6941,1.7068,1.7081,0,0,0,1.6935,1.6952,1.6955,1.6958,1.6944,1.6933,1.6903,1.6896,1.6902,1.6837,1.6912,1.6923,1.6939,1.6952,1.6963,1.6974,1.6847,1.6846,1.6846,1.7063,1.7033,1.7069,1.7036,1.7041,1.701,1.701,1.6995,1.6963,1.6982,1.6983,1.7064,1.7081,1.7089,1.7101,1.6999,1.6999,1.7,1.7,1.7157,1.7176,1.7134,1.7153,1.7121,1.7138,1.7112,1.7089,1.71,1.706,1.7073,1.7029,1.7103,1.7113,1.7004,1.7003,1.7002,1.7002,1.7002,1.7236,1.7239,1.723,1.7232,1.7237,1.7204,1.7217,1.7188,1.7161,1.7174,1.7171,1.717,1.7164,1.7175,1.7176,1.7176,1.7176,1.7176,1.7177,1.7319,1.7307,1.7321,1.731,1.7309,1.7304,1.7276,1.7274,1.7265,1.7243,1.7242,1.7208,1.7117,1.7093,1.7181,1.718,1.7179,1.7179,1.7179,1.742,1.7393,1.7414,1.7413,1.7399,1.7407,1.7371,1.737,1.7365,1.7372,1.7337,1.7275,1.7257,1.7248,1.7228,1.7344,1.7344,1.7344,1.7344,1.7484,1.7473,1.7488,1.7488,1.7486,1.7456,1.7482,1.7462,1.7437,1.7432,1.7412,1.7384,1.7377,1.7362,1.7351,1.7332,1.7472,1.7472,1.7472,1.7543,1.7531,1.7557,1.7532,1.752,1.7511,1.7534,1.7537,1.7503,1.7477,1.7427,1.7422,1.7377,1.7364,1.7333,1.7316,1.728,0,0]},{"header":{"parameterUnit":"m.s-1","parameterCategory":1,"la1":30.2992,"la2":30.254,"lo1":-89.0895,"lo2":-89.0443,"dy":0.0025,"dx":0.0025,"nx":19,"ny":19,"refTime":"2026-05-08T09:00:00:Z","depth":0,"parameterNumber":3,"parameterNumberName":"V-component_of_WINDS"},"data":[0,0,0,3.1177,3.1178,3.125,3.125,3.1342,3.1343,0,0,0,0,0,0,0,0,0,0,0,3.1157,3.1157,3.1177,3.1179,3.125,3.125,3.1342,3.1343,0,0,0,0,0,0,0,0,0,0,0,3.1156,3.1157,3.1158,3.1179,3.125,3.125,3.1342,3.1287,0,0,0,0,0,0,0,0,0,0,3.1218,3.12,3.1157,3.1158,3.1179,3.125,3.125,3.1285,3.1291,3.131,0,3.1328,0,3.1337,3.1349,3.1349,0,0,0,3.1177,3.1195,3.1214,3.1158,3.118,3.125,3.1217,3.1288,3.1295,3.1318,3.133,3.1333,3.1339,3.135,3.135,3.147,3.1471,0,0,3.1173,3.1169,3.1209,3.1218,3.1209,3.1215,3.122,3.1292,3.1304,3.133,3.1335,3.134,3.135,3.1351,3.147,3.147,0,0,0,3.1163,3.1167,3.1184,3.1215,3.1228,3.1217,3.1222,3.1301,3.1307,3.1336,3.1341,3.1351,3.1352,3.1469,3.147,3.1498,0,0,0,3.116,3.1161,3.1182,3.118,3.1226,3.1265,3.1229,3.1302,3.131,3.1341,3.1351,3.1353,3.1468,3.1469,3.1496,3.1511,0,0,0,3.1151,3.1159,3.117,3.118,3.1211,3.1264,3.1274,3.1303,3.1313,3.1349,3.1353,3.1468,3.1469,3.1494,3.1508,3.1543,0,0,0,3.114,3.1192,3.1171,3.1231,3.121,3.1281,3.1274,3.1326,3.1361,3.1351,3.1468,3.147,3.1493,3.1506,3.1541,3.1572,3.1584,0,0,3.1203,3.1199,3.1235,3.1218,3.1293,3.1271,3.1349,3.1383,3.1389,3.1443,3.1446,3.1496,3.1508,3.1542,3.1656,3.1666,0,0,0,3.1254,3.128,3.13,3.1334,3.1363,3.139,3.1413,3.1426,3.1472,3.1416,3.1518,3.1525,3.1546,3.1561,3.1569,3.1588,3.1477,3.1476,3.1476,3.1335,3.1343,3.1404,3.1421,3.1454,3.1479,3.1507,3.1529,3.1524,3.1549,3.1564,3.1632,3.165,3.1656,3.1675,3.1581,3.1581,3.1581,3.1582,3.1428,3.1466,3.1464,3.1521,3.1529,3.1577,3.1604,3.1601,3.1646,3.162,3.1639,3.161,3.1667,3.1684,3.1584,3.1583,3.1583,3.1583,3.1583,3.1482,3.1502,3.152,3.1572,3.1611,3.1627,3.1673,3.1677,3.1682,3.1701,3.1719,3.1718,3.1719,3.1709,3.1709,3.171,3.171,3.171,3.171,3.1531,3.155,3.1589,3.1627,3.1651,3.1684,3.1713,3.1736,3.1764,3.1764,3.1764,3.1758,3.1672,3.165,3.1714,3.1713,3.1713,3.1712,3.1712,3.1622,3.1603,3.1662,3.1687,3.1735,3.1775,3.1782,3.1831,3.1851,3.1874,3.1866,3.1801,3.1796,3.1789,3.1772,3.1863,3.1863,3.1863,3.1863,3.1667,3.1667,3.1731,3.177,3.181,3.1824,3.1892,3.1916,3.1937,3.1951,3.1938,3.1915,3.1908,3.1908,3.1899,3.1882,3.2,3.2,3.2,3.1724,3.1728,3.1785,3.1808,3.1846,3.1879,3.1944,3.199,3.201,3.2006,3.1962,3.1956,3.1919,3.1906,3.1899,3.1884,3.1854,0,0]}]]